Simultaneous Nadir Overpasses (SNOs) Predictions

Prediction of SNOs between LANDSAT-8 and NOAA-19 Satellite Orbit:

Table of predicted SNOs for the next 14.0 days since TLE Epoch: 8/28/2015
Index Date (LANDSAT-8) Time (LANDSAT-8) Lat,Lon (LANDSAT-8) SZA (LANDSAT-8 ) Date (NOAA-19) Time (NOAA-19) Lat,Lon (NOAA-19) SZA (NOAA-19 ) Distance(km) Time Diff (sec)
1 08/29/2015 16:50:26 -73.54, 109.54 115.84 08/29/2015 16:50:12 -73.53, 109.46 115.85 2.70 14
2 08/29/2015 17:39:54 73.41, -83.09 64.04 08/29/2015 17:41:07 73.42, -83.02 64.06 3.10 73
3 08/31/2015 21:34:36 -73.58, 38.60 115.01 08/31/2015 21:33:30 -73.56, 38.60 115.03 2.39 66
4 08/31/2015 22:24:03 73.49,-153.95 64.92 08/31/2015 22:24:26 73.49,-153.97 64.92 0.67 23
5 09/03/2015 03:08:06 73.52, 135.09 65.74 09/03/2015 03:07:44 73.52, 135.19 65.75 3.08 22
6 09/03/2015 03:57:35 -73.44, -57.45 114.33 09/03/2015 03:58:47 -73.43, -57.37 114.33 2.63 72
7 09/05/2015 07:52:01 73.58, 64.24 66.62 09/05/2015 07:51:03 73.60, 64.22 66.63 1.92 58
8 09/05/2015 08:41:30 -73.50,-128.30 113.46 09/05/2015 08:42:05 -73.47,-128.26 113.48 3.03 35
9 09/07/2015 12:35:40 74.10, -5.56 67.98 09/07/2015 12:34:32 74.16, -7.99 68.01 74.29 68
10 09/07/2015 13:25:18 -73.54, 160.85 112.59 09/07/2015 13:25:23 -73.52, 160.84 112.61 2.31 5
11 09/09/2015 18:08:59 -73.58, 90.00 111.73 09/09/2015 18:08:41 -73.58, 89.92 111.72 2.56 18




NCC Satellite Simultaneous Nadir Overpasses (SNOs) Prediction Service
